Temperature
24 23 22 21 20 20 19 19 18 18 18 18 18 18 18 18 18 18 18 18 18 18 18 18 18 18 18 18 18 18 18 18 18 18 18 18 18 18 18 18 18 18 17
24 23 21 21 20 19 19 19 18 18 18 18 18 18 18 18 18 18 18 18 18 18 18 18 18 18 18 18 18 17 17 17 18 18 18 18 18 18 18 18 18 18 18
24 23 21 20 20 19 19 18 18 18 18 18 18 18 18 18 18 18 18 18 18 18 18 18 18 18 18 18 18 17 18 17 18 18 18 18 18 18 18 18 18 18 17
25 23 22 20 20 19 19 19 18 18 18 18 18 18 18 17 18 18 18 18 18 18 18 18 18 18 18 18 18 17 17 18 18 18 18 18 18 18 18 18 18 18 18
25 23 22 21 20 19 19 18 18 18 18 18 18 18 18 18 18 18 18 18 18 18 17 17 17 17 17 17 17 17 17 17 17 18 18 18 18 18 18 18 18 18 18
25 23 22 21 20 19 19 18 18 18 18 18 17 17 17 17 17 18 18 18 17 17 17 17 17 17 17 17 17 17 17 17 17 18 18 18 18 18 18 18 18 18 18
25 23 22 21 20 19 18 18 18 18 17 17 17 17 17 17 17 18 18 18 18 17 17 17 17 17 17 17 17 17 17 17 17 17 18 18 18 18 18 18 18 18 18
25 24 22 21 20 19 19 18 18 18 17 17 17 17 17 17 17 18 18 18 18 18 18 17 17 17 17 17 17 17 17 17 17 17 17 17 17 18 18 18 18 18 18
26 24 23 21 20 19 19 18 18 18 17 17 17 17 17 17 17 18 18 18 18 18 17 17 17 17 17 17 17 17 16 16 17 17 17 17 17 17 17 17 18 18 18
26 25 23 22 21 20 19 18 18 18 18 17 17 17 17 17 17 17 18 18 18 18 18 17 17 17 17 17 17 16 16 16 16 16 16 17 17 17 17 17 17 17 17
26 25 23 22 21 20 19 19 18 18 18 17 17 17 17 17 17 17 18 18 18 18 17 17 17 17 17 17 17 17 16 16 16 16 16 16 17 17 16 17 17 17 17
26 25 23 22 21 20 19 19 18 18 17 17 17 17 17 17 17 18 18 18 18 17 17 17 17 17 17 17 17 17 16 16 16 16 16 16 16 16 16 16 16 16 16
26 24 23 22 21 20 19 19 18 18 18 17 17 17 17 17 17 17 17 17 17 17 17 17 17 17 17 16 17 17 16 16 16 16 16 16 16 16 16 16 16 16 16
25 24 23 22 21 20 19 19 18 18 18 18 17 17 17 17 17 17 17 17 17 17 17 17 17 17 17 16 16 16 16 16 16 16 16 16 16 16 16 16 16 16 16
25 24 23 22 21 20 19 19 19 18 18 18 18 17 17 17 17 17 17 17 17 17 17 17 17 17 17 16 16 16 16 16 16 16 16 16 16 16 16 15 15 15 15
25 24 22 21 20 20 19 19 19 19 18 18 18 18 17 17 17 17 17 17 17 17 17 17 17 16 16 16 16 16 16 16 16 16 16 16 16 16 15 15 15 15 15
24 23 22 21 20 20 19 19 19 18 18 18 18 17 17 17 17 17 17 17 17 17 16 16 16 16 16 16 16 16 16 16 16 15 15 15 15 15 15 15 15 15 15
23 22 22 21 20 20 19 19 18 18 18 18 17 17 17 17 17 17 17 17 17 16 16 16 16 16 16 16 16 16 16 16 15 15 15 15 15 15 15 14 14 14 14
21 21 21 21 20 20 19 19 18 18 18 17 17 17 17 17 17 17 16 16 16 16 16 16 16 16 16 16 16 16 16 15 15 15 15 14 14 14 14 14 14 14 14
20 20 20 20 20 19 19 18 18 18 17 17 17 17 17 16 16 16 16 16 16 16 16 16 15 15 15 15 15 15 15 15 14 14 14 14 14 14 14 13 13 13 13
18 19 19 19 19 19 18 18 18 17 17 17 17 16 16 16 16 16 16 16 16 16 15 15 15 15 15 15 15 15 14 14 14 14 13 13 13 13 13 13 13 13 12
17 17 17 17 18 18 18 17 17 17 16 16 16 16 16 16 16 15 15 15 15 15 15 15 15 14 14 14 14 14 14 13 13 13 13 13 13 13 13 12 12 12 12
16 16 16 16 16 16 16 16 16 16 16 16 16 15 15 15 15 15 15 15 14 14 14 14 14 14 13 13 13 13 13 13 13 12 12 12 12 12 12 12 12 11 11
15 15 15 15 15 15 15 15 15 15 15 15 15 15 15 14 14 14 14 14 14 14 13 13 13 13 13 13 13 13 12 12 12 12 12 12 12 12 11 11 11 11 11
13 13 13 13 13 13 14 14 14 14 14 14 14 14 14 14 14 14 14 13 13 13 13 13 13 12 12 12 12 12 12 12 11 11 11 11 11 11 11 11 11 11 10
12 12 12 12 12 13 13 13 13 13 14 13 13 14 14 13 13 13 13 13 13 13 13 12 12 12 12 11 11 11 11 11 11 11 11 11 11 11 10 10 10 10 10
Wind_Speed
11 11 11 11 11 11 11 11 11 11 9 7 8 7 6 5 5 5 8 9 9 9 5 4 5 3 3 4 5 3 3 2 2 1 2 3 4 3 2 2 2 3 7
11 12 11 10 11 11 11 11 10 11 10 8 8 6 6 6 6 5 7 9 8 8 8 5 5 4 4 4 4 3 1 3 3 1 1 2 2 3 5 4 4 3 4
13 13 12 11 11 11 11 11 11 10 10 10 8 7 6 5 6 7 7 7 8 8 5 7 4 5 5 5 5 4 4 2 2 2 1 0 1 2 2 4 4 4 3
13 13 13 12 12 11 11 9 10 10 10 10 10 11 9 7 7 7 7 7 7 7 7 7 6 5 4 6 6 6 3 2 2 2 1 0 1 0 1 2 3 5 5
12 13 13 12 12 11 10 9 9 9 9 9 11 10 9 7 6 7 8 7 6 6 7 7 5 5 3 5 4 4 2 2 3 2 3 3 2 3 2 2 3 3 4
12 12 11 11 11 10 10 10 10 9 9 10 10 10 10 9 8 8 9 7 6 6 7 7 5 5 4 5 4 4 4 2 1 2 2 1 2 3 3 3 4 4 4
12 12 12 12 11 10 10 10 10 10 10 11 11 10 10 9 9 9 9 8 7 6 8 8 6 6 5 5 5 5 4 4 3 2 3 2 2 1 1 0 1 2 2
12 12 12 11 11 10 10 10 10 10 10 11 10 9 9 8 7 8 8 8 7 8 9 8 8 7 6 7 6 5 5 4 4 5 3 3 3 2 1 1 1 1 2
12 12 13 12 11 11 9 9 9 9 9 10 10 10 9 8 8 8 7 7 6 8 11 10 9 8 7 6 6 5 5 5 5 5 5 3 3 3 2 1 1 1 2
12 13 12 12 11 11 9 9 8 8 8 9 9 10 9 9 8 8 9 8 8 7 10 10 9 8 8 7 6 6 5 5 5 4 4 4 4 3 3 2 2 1 2
11 11 11 11 11 11 10 8 8 8 8 8 8 8 8 8 8 7 8 7 7 8 9 9 9 8 8 8 8 7 7 7 6 6 5 5 5 3 2 2 2 2 2
10 11 11 11 11 10 10 9 8 8 8 8 8 8 8 7 8 8 8 8 7 8 8 8 8 9 9 9 9 9 8 8 8 7 6 6 6 5 4 3 3 2 2
11 11 10 10 10 9 9 9 9 9 9 9 9 8 8 8 8 8 8 8 8 8 8 8 9 8 8 9 9 8 7 7 7 7 7 7 6 6 5 5 4 3 3
9 10 10 9 9 8 8 8 8 8 8 8 8 8 8 8 8 7 7 7 7 7 7 8 7 7 7 7 7 7 7 7 7 7 7 7 7 7 6 6 6 5 4
10 10 10 9 9 8 8 8 7 7 7 7 7 7 7 7 7 7 6 6 7 8 7 6 6 6 6 7 8 7 8 7 6 6 5 6 6 6 6 6 5 5 5
9 10 10 10 9 8 8 8 7 7 6 7 7 6 6 7 7 7 7 7 6 5 6 6 5 6 7 8 8 7 6 5 6 6 5 6 6 6 8 8 6 5 6
5 9 9 9 9 9 8 8 7 7 7 6 6 6 6 6 5 6 6 6 6 5 5 5 4 4 3 4 6 6 4 4 5 5 5 7 7 7 6 7 9 9 10
3 5 8 9 9 9 9 8 8 8 7 6 6 6 6 6 5 4 5 5 4 4 4 4 4 3 2 4 5 5 4 3 3 4 4 5 4 4 4 5 6 7 8
5 4 4 8 9 9 9 8 8 7 7 6 6 5 5 5 5 4 4 4 5 5 4 4 3 3 2 3 4 4 3 3 3 3 3 3 3 4 4 4 6 6 5
7 6 6 6 7 8 9 9 8 7 6 6 6 5 5 5 5 4 3 3 4 4 3 3 2 2 2 3 3 3 1 2 3 2 2 2 2 3 3 4 6 7 6
8 7 8 7 7 7 8 9 8 7 6 6 7 6 5 5 5 4 4 4 4 4 4 3 3 3 3 4 4 3 1 2 2 2 1 1 1 2 3 4 5 6 5
9 9 10 10 9 8 9 10 8 7 7 8 8 7 6 5 5 5 4 4 4 4 3 3 2 2 3 4 4 2 1 3 2 2 2 2 2 3 4 4 5 5 4
9 9 11 12 11 11 11 11 9 8 9 9 9 8 8 6 6 5 4 3 3 3 2 2 2 2 3 4 5 2 0 1 1 2 3 4 5 5 4 5 6 4 3
10 11 12 13 12 12 11 10 9 8 9 9 8 7 7 7 7 6 5 5 4 4 3 3 3 3 4 4 3 2 1 0 1 2 3 5 7 6 5 4 4 4 4
11 12 13 13 13 12 11 11 9 9 9 8 7 7 8 7 7 7 7 7 6 5 4 4 5 4 4 4 3 3 2 2 2 3 3 4 3 3 3 3 3 3 4
12 13 14 14 13 13 12 11 10 9 8 7 6 5 5 5 6 6 7 11 9 9 11 9 7 5 5 3 3 3 3 3 3 3 4 4 3 3 3 3 4 4 4
Wind_Direction
167 159 160 162 162 159 162 166 167 163 162 167 171 178 178 174 169 164 167 173 175 175 190 161 160 184 158 142 137 133 156 217 218 233 190 209 202 181 178 187 160 178 171
165 160 160 161 164 164 167 172 174 171 172 173 176 178 177 176 174 163 166 176 175 176 187 154 172 167 141 141 139 138 183 222 188 226 222 203 189 206 194 172 185 186 167
168 167 166 168 169 171 177 181 179 177 181 174 171 172 171 182 170 163 169 176 175 184 184 159 172 156 166 156 167 173 198 234 187 214 261 259 162 183 178 196 178 164 173
168 169 170 171 173 174 177 176 179 180 180 176 177 176 179 184 177 170 167 173 178 183 185 170 167 168 174 154 182 178 192 208 228 190 202 210 111 140 150 229 190 178 181
164 163 168 169 172 173 174 175 175 179 179 179 182 181 183 184 175 168 160 171 180 186 186 175 166 171 183 163 167 144 187 205 239 233 194 189 187 221 192 208 199 195 184
152 155 157 158 165 171 175 177 177 179 181 183 186 189 188 183 178 172 165 173 176 183 187 178 168 177 181 163 155 163 191 225 271 316 302 201 207 219 212 201 204 199 190
152 155 157 162 168 175 176 177 177 182 184 186 190 194 191 188 185 178 174 176 181 183 187 181 173 181 168 167 171 184 202 198 206 253 283 295 280 255 282 190 225 201 179
155 159 162 164 169 174 175 176 179 183 185 187 188 191 190 190 189 189 181 182 190 186 177 173 177 177 177 184 179 191 197 188 199 228 244 298 305 314 289 266 295 258 225
159 161 161 166 168 169 171 172 175 179 184 186 182 185 187 190 189 185 189 190 194 185 172 173 177 183 186 185 176 207 200 171 192 218 216 239 267 272 293 292 271 249 264
160 161 161 165 163 164 164 167 171 176 179 180 181 182 186 186 183 187 192 192 196 183 166 175 181 185 184 186 189 204 195 187 201 218 212 212 248 233 228 248 257 256 267
158 152 156 157 158 160 162 164 167 171 175 178 178 177 183 186 183 189 193 195 193 177 175 180 182 185 187 188 194 212 191 195 205 217 210 208 250 282 275 238 235 242 247
146 149 151 153 158 161 164 166 170 171 174 176 176 178 178 182 187 195 193 189 188 185 185 186 189 195 194 190 194 213 202 196 203 214 216 209 221 224 268 290 270 245 223
146 147 145 149 154 158 160 165 172 171 175 177 178 181 184 187 191 196 191 185 184 189 190 192 196 204 200 192 196 207 211 206 208 210 213 216 223 219 222 235 263 270 256
147 146 146 149 152 152 154 159 165 168 174 175 178 181 185 187 187 188 183 182 182 190 195 198 200 203 205 197 200 205 212 215 218 215 213 215 219 218 222 229 233 253 272
152 150 153 152 152 151 154 159 160 163 167 167 172 176 178 178 176 178 176 175 183 193 193 198 197 197 203 209 205 205 211 213 223 227 223 226 221 216 215 233 227 235 241
157 153 153 152 152 156 161 157 158 159 155 155 161 162 161 170 174 176 173 174 182 191 189 191 193 201 215 214 201 203 216 205 216 228 230 231 220 220 218 228 237 239 245
142 147 149 149 152 158 158 155 156 155 152 148 151 152 156 158 165 176 170 174 178 182 186 184 189 200 230 199 180 195 221 227 223 226 229 243 242 219 221 228 237 247 251
86 128 147 153 156 155 156 152 154 149 146 148 147 150 154 154 156 161 165 169 171 180 182 185 184 186 207 177 178 193 211 237 244 240 232 233 259 268 245 243 242 243 244
63 80 116 143 147 151 149 145 146 145 144 144 141 143 147 149 153 159 164 166 168 169 176 179 182 188 196 163 170 175 196 225 243 260 269 255 246 270 268 260 264 263 256
52 67 78 98 122 135 138 136 136 133 136 136 134 134 135 137 141 146 146 139 144 153 154 145 144 143 132 121 134 170 213 232 247 242 257 281 278 286 279 264 263 264 266
58 65 72 78 84 104 117 120 116 115 115 111 109 107 108 119 118 114 114 116 125 129 133 119 109 108 104 119 127 147 232 277 285 290 298 347 348 268 267 264 262 261 269
65 68 72 69 66 79 97 97 93 99 101 100 98 94 90 95 102 99 106 116 121 123 121 110 96 98 97 87 120 141 231 317 323 326 352 23 353 302 282 265 260 274 286
68 69 78 74 67 65 80 88 83 86 92 93 92 92 88 77 78 91 96 98 100 106 111 117 110 91 91 84 86 105 254 324 335 335 340 310 288 279 273 250 253 260 259
71 72 77 75 68 64 66 72 74 78 82 82 83 86 87 77 63 61 65 67 64 66 66 73 79 85 81 56 44 38 44 19 311 306 297 275 270 261 260 264 247 239 248
74 75 76 76 72 66 63 61 63 69 76 80 80 81 84 86 78 70 58 67 59 63 65 59 58 54 58 40 34 22 9 358 2 320 280 272 262 249 246 253 255 249 247
80 79 77 76 73 68 62 56 56 62 68 70 68 75 84 91 96 95 80 57 71 73 74 77 84 81 89 94 56 32 354 330 338 320 286 284 280 283 287 282 275 263 260
Height
1469 1472 1476 1479 1482 1485 1487 1491 1494 1497 1502 1506 1509 1514 1518 1522 1526 1530 1533 1536 1539 1541 1544 1547 1549 1551 1553 1555 1556 1558 1560 1561 1562 1564 1564 1565 1566 1566 1568 1569 1570 1570 1571
1467 1471 1474 1477 1480 1483 1486 1488 1491 1495 1499 1502 1506 1510 1515 1520 1523 1527 1530 1534 1537 1540 1543 1545 1547 1549 1551 1553 1555 1557 1559 1560 1562 1563 1563 1564 1566 1565 1566 1567 1568 1569 1570
1464 1469 1472 1475 1478 1481 1483 1486 1489 1492 1496 1500 1504 1508 1513 1517 1521 1525 1528 1531 1535 1538 1541 1543 1545 1548 1550 1551 1553 1555 1557 1559 1561 1562 1563 1563 1563 1564 1565 1566 1567 1568 1569
1461 1466 1470 1473 1476 1479 1482 1484 1487 1490 1493 1497 1501 1505 1509 1513 1517 1521 1525 1529 1532 1535 1538 1541 1544 1546 1548 1550 1552 1553 1556 1557 1559 1560 1561 1562 1562 1563 1564 1566 1566 1567 1568
1458 1463 1467 1471 1474 1477 1480 1482 1485 1487 1490 1494 1498 1502 1506 1511 1515 1519 1523 1526 1530 1533 1536 1539 1541 1544 1546 1548 1550 1551 1554 1555 1557 1559 1560 1560 1561 1562 1563 1564 1565 1566 1566
1456 1461 1466 1469 1473 1476 1478 1480 1482 1485 1488 1492 1496 1500 1504 1508 1513 1516 1520 1524 1527 1531 1534 1537 1539 1542 1544 1546 1548 1549 1551 1553 1554 1556 1558 1559 1560 1560 1561 1562 1563 1564 1564
1454 1460 1464 1468 1471 1474 1476 1478 1480 1483 1486 1489 1493 1497 1501 1505 1509 1513 1517 1521 1524 1528 1531 1535 1537 1540 1542 1543 1545 1547 1549 1551 1552 1554 1555 1556 1558 1559 1560 1560 1561 1562 1563
1453 1458 1462 1466 1469 1472 1474 1476 1478 1480 1483 1486 1490 1495 1498 1502 1507 1511 1515 1518 1522 1525 1529 1532 1534 1537 1539 1541 1543 1545 1547 1548 1550 1551 1553 1554 1555 1557 1558 1559 1560 1560 1561
1451 1456 1460 1464 1468 1470 1473 1475 1476 1478 1481 1484 1488 1492 1495 1499 1503 1508 1512 1516 1519 1523 1526 1529 1531 1534 1536 1538 1540 1542 1544 1546 1547 1549 1550 1552 1553 1554 1555 1556 1558 1559 1559
1449 1454 1458 1463 1466 1469 1472 1474 1475 1477 1480 1483 1486 1489 1493 1497 1501 1505 1509 1513 1517 1520 1523 1526 1528 1531 1533 1535 1538 1540 1542 1543 1545 1546 1548 1549 1551 1552 1553 1554 1555 1556 1557
1447 1452 1457 1461 1465 1468 1471 1473 1474 1476 1479 1482 1485 1488 1492 1495 1499 1502 1506 1510 1514 1517 1520 1523 1526 1528 1530 1533 1535 1537 1539 1540 1542 1544 1545 1546 1547 1549 1550 1551 1552 1553 1554
1446 1451 1455 1460 1464 1467 1469 1472 1474 1476 1478 1481 1484 1487 1490 1493 1497 1500 1504 1507 1511 1514 1517 1520 1523 1525 1527 1530 1532 1534 1536 1537 1539 1540 1542 1543 1545 1546 1547 1548 1549 1550 1550
1446 1450 1455 1459 1463 1466 1468 1471 1473 1475 1478 1480 1483 1486 1488 1491 1495 1499 1502 1505 1508 1511 1514 1517 1519 1522 1524 1526 1528 1530 1533 1534 1536 1537 1539 1540 1541 1542 1543 1544 1545 1546 1547
1445 1450 1454 1458 1462 1465 1467 1470 1473 1475 1478 1480 1482 1485 1487 1490 1493 1497 1500 1503 1506 1509 1511 1514 1516 1519 1521 1523 1525 1527 1529 1531 1533 1534 1535 1537 1538 1538 1539 1540 1541 1542 1542
1445 1449 1453 1457 1461 1464 1467 1470 1472 1475 1477 1479 1482 1484 1486 1488 1492 1495 1498 1501 1504 1506 1509 1511 1513 1516 1518 1520 1521 1524 1526 1527 1529 1531 1532 1533 1534 1535 1535 1536 1537 1537 1537
1444 1448 1452 1456 1460 1463 1466 1469 1471 1474 1477 1479 1481 1483 1485 1488 1491 1494 1497 1500 1502 1505 1507 1509 1511 1513 1515 1517 1518 1520 1523 1524 1525 1527 1528 1529 1530 1530 1531 1532 1532 1533 1533
1444 1447 1451 1455 1458 1462 1466 1468 1471 1473 1476 1478 1481 1483 1485 1488 1490 1493 1496 1498 1500 1503 1505 1506 1508 1510 1512 1514 1516 1517 1519 1521 1522 1523 1524 1525 1526 1526 1526 1527 1527 1527 1528
1445 1447 1450 1454 1458 1461 1465 1468 1471 1472 1475 1478 1480 1482 1485 1487 1489 1492 1494 1496 1499 1501 1503 1505 1506 1508 1509 1511 1512 1514 1516 1517 1518 1519 1520 1520 1521 1521 1521 1521 1521 1521 1521
1445 1448 1451 1454 1457 1461 1464 1467 1470 1472 1474 1477 1479 1481 1483 1485 1488 1490 1492 1495 1497 1499 1501 1503 1504 1505 1507 1509 1510 1511 1512 1513 1514 1515 1516 1516 1516 1516 1517 1516 1516 1515 1515
1447 1449 1451 1453 1456 1459 1463 1466 1469 1472 1474 1476 1478 1481 1483 1485 1487 1489 1491 1493 1496 1498 1499 1501 1502 1503 1505 1506 1507 1508 1508 1509 1510 1511 1511 1511 1511 1511 1511 1511 1510 1509 1509
1449 1450 1452 1454 1457 1460 1462 1465 1469 1471 1474 1476 1478 1480 1482 1484 1486 1488 1490 1492 1494 1496 1498 1499 1500 1501 1503 1503 1504 1504 1505 1506 1506 1507 1507 1507 1507 1506 1506 1505 1504 1503 1503
1452 1452 1454 1456 1458 1460 1463 1466 1469 1472 1474 1476 1478 1480 1482 1484 1486 1487 1489 1491 1493 1495 1496 1497 1498 1500 1501 1501 1501 1502 1502 1503 1503 1503 1503 1503 1502 1502 1501 1500 1499 1498 1497
1454 1455 1456 1458 1460 1462 1464 1467 1470 1473 1475 1477 1478 1480 1483 1484 1486 1487 1489 1491 1493 1494 1495 1496 1497 1498 1499 1499 1499 1500 1500 1500 1500 1500 1499 1499 1498 1497 1496 1495 1495 1494 1492
1457 1458 1459 1461 1463 1466 1468 1470 1472 1474 1476 1478 1480 1482 1484 1485 1487 1488 1489 1491 1492 1493 1494 1495 1496 1497 1498 1498 1497 1498 1497 1497 1497 1497 1496 1496 1495 1494 1493 1492 1491 1490 1489
1461 1462 1464 1466 1468 1470 1472 1473 1475 1477 1478 1480 1482 1484 1485 1487 1489 1490 1491 1492 1493 1494 1495 1496 1496 1497 1497 1497 1496 1496 1496 1495 1495 1494 1494 1493 1493 1492 1491 1490 1489 1488 1486
1466 1467 1469 1471 1472 1474 1476 1478 1479 1480 1481 1483 1485 1487 1488 1490 1491 1492 1493 1494 1495 1495 1496 1496 1497 1497 1497 1496 1496 1495 1495 1494 1494 1493 1492 1491 1491 1490 1489 1488 1487 1485 1484